[[{"header":{"parameterUnit":"m.s-1","parameterCategory":1,"la1":30.2991,"la2":30.254,"lo1":-89.0895,"lo2":-89.0444,"dy":0.0017,"dx":0.0017,"nx":28,"ny":28,"refTime":"2023-08-26T21:00:00:Z","depth":0,"parameterNumber":2,"parameterNumberName":"U-component_of_WINDS"},"data":[0,0,0,0,0,0,0,0,0,0,0,0,0,0,0,0,0,0,0,0,0,0,0,0,0,0,0,0,0,0,0,0,0,0,0,0,0,0,0,0,0,0,0,0,0,0,0,0,0,0,0,0,0,0,0,0,0,0,0.8218,0.8219,0,0.8273,0.8274,0.8274,0.8324,0.8325,0.8326,0.8326,0.838,0.8381,0.8382,0,0,0,0,0,0,0,0,0,0,0,0,0,0.8156,0.8157,0.8218,0.8219,0.8219,0.8273,0.8274,0.8274,0.8324,0.8325,0.8326,0.8327,0.838,0.8381,0.8382,0,0,0,0,0,0,0,0,0,0,0,0,0,0.8194,0.8157,0.8218,0.8251,0.8254,0.8273,0.8274,0.8275,0.8324,0.8325,0.8326,0.8327,0.838,0.8381,0.8382,0.8372,0,0,0.8386,0.8387,0,0,0,0,0,0,0,0,0.8192,0.8196,0.8245,0.8249,0.8253,0.8293,0.8272,0.8307,0.8324,0.8298,0.8326,0.8327,0.835,0.8354,0.8362,0.8374,0.8377,0.8386,0.8387,0.8388,0.8388,0,0,0,0,0,0,0,0.8189,0.8194,0.824,0.8246,0.825,0.8263,0.8269,0.8279,0.8318,0.83,0.8304,0.831,0.8353,0.8361,0.8364,0.8378,0.8386,0.8388,0.8388,0.8389,0.8386,0.8385,0,0,0,0,0,0,0.8181,0.8191,0.8238,0.8241,0.8224,0.8263,0.827,0.8279,0.8318,0.8325,0.8309,0.8312,0.8358,0.8362,0.8366,0.8357,0.8388,0.8389,0.839,0.8386,0.8385,0.8384,0,0,0,0,0,0,0.818,0.8185,0.8236,0.8218,0.8225,0.8263,0.8272,0.828,0.8288,0.8325,0.8332,0.831,0.8359,0.8364,0.8371,0.836,0.839,0.8391,0.8387,0.8386,0.8385,0.8338,0,0,0,0,0,0,0.8178,0.8184,0.8181,0.8217,0.8226,0.8239,0.8272,0.828,0.829,0.8295,0.8328,0.8334,0.836,0.8368,0.8372,0.8362,0.8392,0.8389,0.8387,0.8385,0.8341,0.8336,0.8331,0,0,0,0,0,0.8176,0.8164,0.818,0.8185,0.8222,0.8238,0.8243,0.8274,0.8289,0.8286,0.831,0.8333,0.8361,0.8369,0.8373,0.8363,0.8389,0.8387,0.8385,0.8343,0.8337,0.8331,0,0,0,0,0,0,0.8124,0.817,0.8188,0.8188,0.8209,0.8247,0.8243,0.8266,0.8282,0.8285,0.8322,0.8329,0.8332,0.8348,0.8356,0.8356,0.8378,0.8377,0.8345,0.8339,0.8334,0.8329,0.8393,0,0,0,0,0,0.8113,0.8123,0.8162,0.8159,0.8169,0.8204,0.8213,0.8235,0.8258,0.8266,0.8291,0.8312,0.8326,0.8333,0.8348,0.8344,0.8353,0.834,0.8335,0.8331,0.8329,0.833,0.8325,0.8378,0.8378,0.8378,0,0,0.809,0.8116,0.812,0.815,0.8168,0.8178,0.8211,0.8219,0.8227,0.8267,0.8275,0.8294,0.832,0.8322,0.8324,0.8336,0.8316,0.8328,0.8325,0.8325,0.8327,0.8322,0.8317,0.8377,0.8377,0.8377,0,0,0.8053,0.8073,0.8073,0.8092,0.8121,0.8145,0.8145,0.818,0.8195,0.8203,0.8234,0.8244,0.8266,0.8284,0.8295,0.8267,0.829,0.8271,0.8244,0.8244,0.824,0.8237,0.8227,0.8223,0.8269,0.8269,0.8269,0,0.802,0.8035,0.807,0.8077,0.8089,0.8129,0.8129,0.8146,0.8177,0.8184,0.8198,0.8228,0.8248,0.8255,0.8248,0.8257,0.8258,0.8267,0.8238,0.8235,0.8232,0.8223,0.8219,0.8267,0.8267,0.8267,0.8268,0,0.7994,0.8005,0.8001,0.8032,0.8044,0.8048,0.8083,0.8091,0.8113,0.8136,0.8145,0.8171,0.8192,0.8195,0.8216,0.8205,0.8212,0.8231,0.8254,0.8224,0.8216,0.8213,0.8263,0.8264,0.8265,0.8266,0,0,0.7923,0.7975,0.7973,0.7989,0.8024,0.8033,0.8039,0.8061,0.8067,0.8088,0.8094,0.8113,0.8132,0.8145,0.8169,0.8169,0.8146,0.8189,0.819,0.8179,0.8136,0.8121,0.8116,0.8161,0.8161,0.8161,0.8134,0,0.7891,0.7904,0.7937,0.794,0.795,0.7989,0.7994,0.8017,0.8039,0.8051,0.8076,0.8088,0.8112,0.8121,0.8123,0.8148,0.8137,0.815,0.8167,0.8167,0.8158,0.8112,0.8095,0.8069,0.8131,0.8131,0.813,0,0.7855,0.7875,0.7879,0.7916,0.7922,0.7926,0.7949,0.796,0.7987,0.8004,0.802,0.8046,0.8055,0.8077,0.809,0.8098,0.8107,0.8121,0.8121,0.8122,0.8146,0.8112,0.8061,0.8057,0.8126,0.8126,0.8126,0,0.7803,0.7831,0.7837,0.7849,0.7892,0.7895,0.7913,0.7941,0.7952,0.7973,0.7981,0.8001,0.8012,0.8028,0.806,0.8073,0.8069,0.8094,0.8083,0.8082,0.8079,0.8078,0.8028,0.8086,0.8086,0.8086,0.8086,0,0.7763,0.7764,0.7815,0.7818,0.7821,0.7859,0.7861,0.7883,0.7908,0.7917,0.7951,0.7959,0.8001,0.8013,0.8039,0.8045,0.805,0.8063,0.807,0.806,0.8058,0.8065,0.8067,0.8085,0.8085,0.8085,0.8085,0,0.7704,0.7738,0.7748,0.7789,0.7799,0.7799,0.7835,0.784,0.7865,0.7876,0.7881,0.792,0.7937,0.7971,0.7996,0.8014,0.8014,0.8026,0.8005,0.8009,0.7996,0.7996,0.7948,0.7943,0.8004,0.8004,0.8003,0,0.7675,0.7677,0.7719,0.7728,0.7745,0.7759,0.7772,0.781,0.7822,0.7854,0.7855,0.7875,0.7893,0.7918,0.7949,0.7969,0.7981,0.7963,0.7984,0.7975,0.7981,0.798,0.798,0.7957,0.7957,0.7956,0.7955,0,0.7622,0.7639,0.7656,0.7679,0.7694,0.7713,0.7735,0.774,0.7784,0.7795,0.7814,0.7827,0.7855,0.7874,0.79,0.7918,0.7944,0.7949,0.7947,0.7936,0.7924,0.793,0.7991,0.7949,0.795,0.795,0.7951,0.7951,0.7577,0.7581,0.7612,0.763,0.7651,0.7671,0.7678,0.7705,0.7721,0.7747,0.7769,0.7785,0.7814,0.7851,0.7869,0.7882,0.7894,0.7892,0.7891,0.789,0.7886,0.7923,0.7887,0.7887,0.7887,0.7888,0.7888,0,0.7524,0.7547,0.7563,0.7593,0.7608,0.7633,0.7659,0.7669,0.7683,0.7708,0.7726,0.7747,0.7767,0.78,0.7823,0.7827,0.7839,0.7832,0.7831,0.7835,0.7873,0.7872,0.7821,0.7821,0.7821,0.7821,0.7821,0.7821,0.7499,0.7507,0.7529,0.7548,0.7571,0.7587,0.76,0.7619,0.764,0.7662,0.7679,0.7701,0.773,0.7755,0.7774,0.7784,0.779,0.7778,0.7791,0.7826,0.7832,0.7838,0.7837,0.778,0.778,0.7752,0.7752,0.7751]},{"header":{"parameterUnit":"m.s-1","parameterCategory":1,"la1":30.2991,"la2":30.254,"lo1":-89.0895,"lo2":-89.0444,"dy":0.0017,"dx":0.0017,"nx":28,"ny":28,"refTime":"2023-08-26T21:00:00:Z","depth":0,"parameterNumber":3,"parameterNumberName":"V-component_of_WINDS"},"data":[0,0,0,0,0,0,0,0,0,0,0,0,0,0,0,0,0,0,0,0,0,0,0,0,0,0,0,0,0,0,0,0,0,0,0,0,0,0,0,0,0,0,0,0,0,0,0,0,0,0,0,0,0,0,0,0,0,0,-1.4921,-1.4921,0,-1.4902,-1.4902,-1.4902,-1.4872,-1.4872,-1.4871,-1.4871,-1.4849,-1.4849,-1.4849,0,0,0,0,0,0,0,0,0,0,0,0,0,-1.493,-1.493,-1.4921,-1.4921,-1.4921,-1.4902,-1.4902,-1.4902,-1.4872,-1.4872,-1.4871,-1.487,-1.4849,-1.4849,-1.4849,0,0,0,0,0,0,0,0,0,0,0,0,0,-1.492,-1.493,-1.4921,-1.4904,-1.4902,-1.4903,-1.4902,-1.4902,-1.4872,-1.4872,-1.4871,-1.487,-1.4849,-1.4849,-1.4849,-1.4865,0,0,-1.4849,-1.4849,0,0,0,0,0,0,0,0,-1.4921,-1.492,-1.4906,-1.4905,-1.4903,-1.4889,-1.4898,-1.4889,-1.4873,-1.4884,-1.4871,-1.487,-1.4863,-1.4862,-1.486,-1.4864,-1.4863,-1.4849,-1.4849,-1.4849,-1.4849,0,0,0,0,0,0,0,-1.4922,-1.4921,-1.4914,-1.4906,-1.4904,-1.4897,-1.4894,-1.4896,-1.4878,-1.4883,-1.488,-1.4879,-1.4862,-1.486,-1.4859,-1.4862,-1.4849,-1.4849,-1.4849,-1.4849,-1.488,-1.4881,0,0,0,0,0,0,-1.4925,-1.4921,-1.4914,-1.4913,-1.491,-1.4897,-1.4895,-1.4894,-1.4878,-1.4875,-1.4879,-1.4877,-1.4861,-1.4859,-1.4858,-1.4877,-1.4849,-1.4849,-1.4849,-1.4879,-1.4881,-1.4882,0,0,0,0,0,0,-1.4926,-1.4925,-1.4915,-1.4917,-1.4915,-1.4898,-1.4898,-1.4894,-1.4892,-1.4875,-1.4872,-1.4881,-1.486,-1.4858,-1.4864,-1.4876,-1.4849,-1.4848,-1.4878,-1.488,-1.4881,-1.4913,0,0,0,0,0,0,-1.4926,-1.4925,-1.4931,-1.4917,-1.4915,-1.4921,-1.4898,-1.4894,-1.4893,-1.489,-1.4876,-1.4873,-1.4859,-1.4864,-1.4864,-1.4875,-1.4848,-1.4877,-1.4879,-1.4881,-1.4911,-1.4916,-1.492,0,0,0,0,0,-1.4926,-1.4939,-1.4931,-1.493,-1.4922,-1.4922,-1.492,-1.4905,-1.4894,-1.4899,-1.4889,-1.4873,-1.4875,-1.4865,-1.4864,-1.4876,-1.4876,-1.4878,-1.488,-1.4909,-1.4915,-1.492,0,0,0,0,0,0,-1.4953,-1.4937,-1.4928,-1.4937,-1.4931,-1.4917,-1.4923,-1.4911,-1.4908,-1.4905,-1.4885,-1.4883,-1.4891,-1.4884,-1.4873,-1.4891,-1.4873,-1.4875,-1.4896,-1.4901,-1.4905,-1.4906,-1.4848,0,0,0,0,0,-1.4961,-1.4963,-1.4948,-1.4958,-1.4955,-1.494,-1.4939,-1.4929,-1.4921,-1.4918,-1.4908,-1.4901,-1.49,-1.49,-1.4898,-1.491,-1.4908,-1.4918,-1.4922,-1.4926,-1.4928,-1.4936,-1.494,-1.4888,-1.4888,-1.4888,0,0,-1.4975,-1.4967,-1.4969,-1.4963,-1.4957,-1.496,-1.4938,-1.4941,-1.4943,-1.4918,-1.4924,-1.4916,-1.4907,-1.4917,-1.4921,-1.4911,-1.4942,-1.4928,-1.4931,-1.4931,-1.4938,-1.4943,-1.4948,-1.489,-1.4889,-1.4889,0,0,-1.5003,-1.4997,-1.5005,-1.5,-1.4992,-1.4983,-1.4985,-1.4973,-1.4967,-1.4973,-1.4955,-1.4957,-1.4955,-1.495,-1.4948,-1.4977,-1.4963,-1.4977,-1.4999,-1.5007,-1.5011,-1.5015,-1.5026,-1.5031,-1.4979,-1.4979,-1.4979,0,-1.5022,-1.5026,-1.501,-1.5016,-1.5014,-1.4994,-1.5003,-1.4998,-1.499,-1.499,-1.4979,-1.4979,-1.4971,-1.4981,-1.4988,-1.4986,-1.4989,-1.4978,-1.5012,-1.5015,-1.5018,-1.5029,-1.5034,-1.4981,-1.4981,-1.498,-1.498,0,-1.505,-1.5053,-1.5061,-1.5055,-1.5054,-1.5061,-1.5047,-1.5049,-1.5038,-1.503,-1.5036,-1.5027,-1.5024,-1.5025,-1.5014,-1.5034,-1.5029,-1.5015,-1.4997,-1.5025,-1.5036,-1.504,-1.4983,-1.4983,-1.4982,-1.4982,0,0,-1.5093,-1.5081,-1.5084,-1.5082,-1.5073,-1.5075,-1.5082,-1.508,-1.5083,-1.5078,-1.5083,-1.5084,-1.5073,-1.507,-1.5058,-1.5065,-1.5092,-1.5051,-1.5051,-1.506,-1.5114,-1.5125,-1.513,-1.5083,-1.5083,-1.5084,-1.5115,0,-1.512,-1.5131,-1.5119,-1.5133,-1.5136,-1.5118,-1.5124,-1.512,-1.5112,-1.5114,-1.5106,-1.5107,-1.5091,-1.509,-1.5096,-1.5087,-1.5102,-1.5084,-1.5088,-1.5088,-1.5091,-1.5135,-1.5145,-1.5176,-1.5119,-1.512,-1.512,0,-1.5152,-1.5152,-1.5166,-1.5159,-1.516,-1.5165,-1.5164,-1.5166,-1.5161,-1.5155,-1.5154,-1.5141,-1.5148,-1.513,-1.5139,-1.5128,-1.5129,-1.5125,-1.5125,-1.5125,-1.5106,-1.5137,-1.5185,-1.519,-1.5126,-1.5126,-1.5125,0,-1.5184,-1.5186,-1.5196,-1.5195,-1.5186,-1.5191,-1.5187,-1.5182,-1.5182,-1.5181,-1.5182,-1.5181,-1.518,-1.518,-1.5168,-1.5156,-1.5179,-1.516,-1.5175,-1.5176,-1.5181,-1.5181,-1.523,-1.518,-1.518,-1.518,-1.518,0,-1.5216,-1.5226,-1.5211,-1.5217,-1.5228,-1.5214,-1.5225,-1.522,-1.5216,-1.5221,-1.5204,-1.5209,-1.5193,-1.5196,-1.5186,-1.5197,-1.5196,-1.5192,-1.5189,-1.5194,-1.5195,-1.5194,-1.5192,-1.5181,-1.5181,-1.5181,-1.5181,0,-1.5253,-1.5243,-1.5253,-1.5245,-1.5243,-1.5252,-1.5245,-1.525,-1.5243,-1.525,-1.525,-1.5238,-1.5242,-1.523,-1.523,-1.5224,-1.524,-1.5233,-1.5242,-1.524,-1.5256,-1.5256,-1.5308,-1.5315,-1.526,-1.526,-1.5261,0,-1.5274,-1.5281,-1.5275,-1.5278,-1.5276,-1.528,-1.5282,-1.5269,-1.5271,-1.5267,-1.5273,-1.5276,-1.5277,-1.5283,-1.5275,-1.5276,-1.527,-1.5288,-1.527,-1.5275,-1.5272,-1.5272,-1.5273,-1.5292,-1.5293,-1.5293,-1.5294,0,-1.5313,-1.5308,-1.5311,-1.5313,-1.5316,-1.5316,-1.5315,-1.5319,-1.5305,-1.5308,-1.5312,-1.5314,-1.5316,-1.5319,-1.5319,-1.5315,-1.5303,-1.53,-1.5304,-1.5308,-1.5314,-1.5313,-1.5253,-1.5299,-1.5298,-1.5298,-1.5297,-1.5297,-1.5343,-1.535,-1.5348,-1.5352,-1.5351,-1.5351,-1.5357,-1.5351,-1.5355,-1.5356,-1.5348,-1.5355,-1.5352,-1.535,-1.5348,-1.5353,-1.5344,-1.5349,-1.5351,-1.5353,-1.5356,-1.5313,-1.5353,-1.5353,-1.5352,-1.5352,-1.5352,0,-1.5383,-1.5381,-1.5385,-1.5386,-1.539,-1.5379,-1.5378,-1.5382,-1.5389,-1.5387,-1.5389,-1.5395,-1.5399,-1.5391,-1.5394,-1.5399,-1.5394,-1.5401,-1.54,-1.54,-1.5363,-1.536,-1.5405,-1.5405,-1.5405,-1.5405,-1.5405,-1.5405,-1.5403,-1.5415,-1.5411,-1.5423,-1.542,-1.5428,-1.5428,-1.5429,-1.5428,-1.5436,-1.5439,-1.5435,-1.5432,-1.5434,-1.5437,-1.5435,-1.5437,-1.5446,-1.5442,-1.5407,-1.5402,-1.5397,-1.5395,-1.5446,-1.5447,-1.5479,-1.5479,-1.548]}]]